| time (UTC) | temp F | wind direction | speed MPH | gust MPH | rain 1hr in | rain 24hr in | rain mn in | humidity % | barometer mb |
| 20260903232925 | 65 | 0 | 0.0 | 2.0 | 0.01 | 0.78 | 0.78 | 99 | 1006.1 |
| 20260903232426 | 65 | 63 | 0.0 | 4.0 | 0.02 | 0.78 | 0.78 | 99 | 1006.5 |
| 20260903231924 | 65 | 180 | 0.0 | 4.0 | 0.05 | 0.78 | 0.78 | 99 | 1005.4 |
| 20260903231426 | 65 | 295 | 2.0 | 2.0 | 0.13 | 0.78 | 0.78 | 99 | 1005.1 |
| 20260903230923 | 65 | 99 | 0.0 | 3.0 | 0.13 | 0.78 | 0.78 | 99 | 1006.1 |
| 20260903230425 | 65 | 90 | 1.0 | 5.0 | 0.13 | 0.78 | 0.78 | 99 | 1005.7 |
| 20260903225923 | 65 | 270 | 0.0 | 5.0 | 0.14 | 0.78 | 0.78 | 99 | 1005.1 |
| 20260903225425 | 65 | 243 | 0.0 | 6.0 | 0.19 | 0.78 | 0.78 | 99 | 1004.7 |
| 20260903224923 | 65 | 227 | 0.0 | 6.0 | 0.30 | 0.78 | 0.77 | 99 | 1005.1 |
| 20260903224423 | 65 | 267 | 0.0 | 5.0 | 0.64 | 0.77 | 0.77 | 99 | 1004.4 |
| 20260903223922 | 65 | 69 | 3.0 | 5.0 | 0.77 | 0.77 | 0.77 | 99 | 1004.0 |
| 20260903223421 | 65 | 265 | 2.0 | 8.0 | 0.77 | 0.77 | 0.77 | 99 | 1004.0 |
| 20260903222922 | 65 | 23 | 0.0 | 8.0 | 0.77 | 0.77 | 0.77 | 99 | 1004.4 |
| 20260903222423 | 65 | 276 | 1.0 | 6.0 | 0.76 | 0.76 | 0.76 | 99 | 1004.0 |
| 20260903221921 | 65 | 345 | 2.0 | 6.0 | 0.71 | 0.71 | 0.70 | 99 | 1005.1 |
| 20260903221422 | 65 | 180 | 0.0 | 5.0 | 0.65 | 0.65 | 0.65 | 99 | 1006.9 |
| 20260903220420 | 65 | 98 | 1.0 | 4.0 | 0.65 | 0.65 | 0.65 | 99 | 1006.9 |
| 20260903215919 | 65 | 130 | 2.0 | 7.0 | 0.64 | 0.64 | 0.63 | 99 | 1006.9 |
| 20260903215421 | 65 | 14 | 0.0 | 8.0 | 0.59 | 0.59 | 0.58 | 98 | 1006.9 |
| 20260903214919 | 65 | 23 | 2.0 | 8.0 | 0.48 | 0.48 | 0.35 | 97 | 1007.2 |
| 20260903214420 | 66 | 159 | 2.0 | 11.0 | 0.13 | 0.13 | 0.06 | 93 | 1007.2 |
| 20260903213918 | 72 | 188 | 0.0 | 11.0 | 0.00 | 0.00 | 0.00 | 82 | 1007.2 |
| 20260903213403 | 76 | 143 | 2.0 | 4.0 | 0.00 | 0.00 | 0.00 | 74 | 1006.5 |
| 20260903212901 | 76 | 90 | 0.0 | 5.0 | 0.00 | 0.00 | 0.00 | 75 | 1004.7 |
| 20260903212403 | 77 | 106 | 0.0 | 10.0 | 0.00 | 0.00 | 0.00 | 73 | 1004.0 |
| 20260903211900 | 77 | 270 | 2.0 | 10.0 | 0.00 | 0.00 | 0.00 | 72 | 1003.6 |
| 20260903211403 | 78 | 246 | 5.0 | 10.0 | 0.00 | 0.00 | 0.00 | 70 | 1004.0 |
| 20260903205901 | 78 | 338 | 3.0 | 9.0 | 0.00 | 0.00 | 0.00 | 71 | 1004.0 |
| 20260903205401 | 78 | 304 | 4.0 | 9.0 | 0.00 | 0.00 | 0.00 | 69 | 1004.4 |
| 20260903204901 | 78 | 270 | 2.0 | 9.0 | 0.00 | 0.00 | 0.00 | 69 | 1004.7 |
| 20260903204401 | 79 | 322 | 5.0 | 11.0 | 0.00 | 0.00 | 0.00 | 68 | 1004.4 |
| 20260903203901 | 80 | 270 | 2.0 | 11.0 | 0.00 | 0.00 | 0.00 | 68 | 1004.4 |
| 20260903203401 | 80 | 233 | 2.0 | 11.0 | 0.00 | 0.00 | 0.00 | 69 | 1004.0 |
| 20260903202902 | 80 | 266 | 2.0 | 11.0 | 0.00 | 0.00 | 0.00 | 67 | 1004.4 |
| 20260903202401 | 80 | 294 | 5.0 | 7.0 | 0.00 | 0.00 | 0.00 | 67 | 1004.4 |
| 20260903201902 | 80 | 243 | 2.0 | 8.0 | 0.00 | 0.00 | 0.00 | 65 | 1004.7 |
| 20260903201400 | 81 | 278 | 0.0 | 9.0 | 0.00 | 0.00 | 0.00 | 66 | 1004.4 |
| 20260903200901 | 80 | 247 | 4.0 | 9.0 | 0.00 | 0.00 | 0.00 | 67 | 1005.1 |
| 20260903200403 | 80 | 241 | 3.0 | 5.0 | 0.00 | 0.00 | 0.00 | 66 | 1004.7 |
| 20260903195901 | 80 | 334 | 4.0 | 5.0 | 0.00 | 0.00 | 0.00 | 66 | 1005.1 |
| 20260903195400 | 80 | 248 | 2.0 | 6.0 | 0.00 | 0.00 | 0.00 | 66 | 1005.1 |
| 20260903194901 | 80 | 255 | 2.0 | 8.0 | 0.00 | 0.00 | 0.00 | 67 | 1005.1 |
| 20260903193901 | 80 | 288 | 4.0 | 9.0 | 0.00 | 0.00 | 0.00 | 66 | 1005.4 |
| 20260903193401 | 81 | 275 | 4.0 | 9.0 | 0.00 | 0.00 | 0.00 | 65 | 1005.1 |
| 20260903192901 | 81 | 313 | 3.0 | 9.0 | 0.00 | 0.00 | 0.00 | 66 | 1005.1 |
| 20260903191902 | 81 | 315 | 2.0 | 7.0 | 0.00 | 0.00 | 0.00 | 66 | 1005.4 |
| 20260903191400 | 80 | 289 | 2.0 | 7.0 | 0.00 | 0.00 | 0.00 | 66 | 1005.4 |
| 20260903190901 | 80 | 286 | 3.0 | 6.0 | 0.00 | 0.00 | 0.00 | 67 | 1005.7 |
| 20260903190402 | 79 | 0 | 2.0 | 7.0 | 0.00 | 0.00 | 0.00 | 67 | 1005.7 |
| 20260903185901 | 80 | 205 | 3.0 | 7.0 | 0.00 | 0.00 | 0.00 | 67 | 1006.1 |
| 20260903185402 | 79 | 267 | 3.0 | 5.0 | 0.00 | 0.00 | 0.00 | 68 | 1006.1 |
| 20260903184900 | 79 | 270 | 2.0 | 8.0 | 0.00 | 0.00 | 0.00 | 67 | 1005.7 |
| 20260903183901 | 80 | 313 | 3.0 | 8.0 | 0.00 | 0.00 | 0.00 | 65 | 1005.7 |
| 20260903183402 | 80 | 297 | 2.0 | 8.0 | 0.00 | 0.00 | 0.00 | 66 | 1006.1 |
| 20260903182901 | 80 | 165 | 0.0 | 9.0 | 0.00 | 0.00 | 0.00 | 67 | 1006.1 |
| 20260903182402 | 80 | 222 | 3.0 | 10.0 | 0.00 | 0.00 | 0.00 | 66 | 1005.7 |
| 20260903181901 | 79 | 223 | 4.0 | 10.0 | 0.00 | 0.00 | 0.00 | 65 | 1005.7 |
| 20260903181402 | 80 | 222 | 3.0 | 7.0 | 0.00 | 0.00 | 0.00 | 65 | 1005.7 |
| 20260903180901 | 79 | 243 | 2.0 | 8.0 | 0.00 | 0.00 | 0.00 | 66 | 1005.4 |
| 20260903180402 | 79 | 276 | 5.0 | 8.0 | 0.00 | 0.00 | 0.00 | 66 | 1005.4 |
| 20260903175901 | 79 | 283 | 4.0 | 10.0 | 0.00 | 0.00 | 0.00 | 64 | 1005.7 |
| 20260903175402 | 78 | 315 | 3.0 | 10.0 | 0.00 | 0.00 | 0.00 | 66 | 1005.4 |
| 20260903174900 | 78 | 285 | 2.0 | 7.0 | 0.00 | 0.00 | 0.00 | 65 | 1005.4 |
| 20260903174403 | 79 | 281 | 2.0 | 9.0 | 0.00 | 0.00 | 0.00 | 65 | 1005.7 |
| 20260903173902 | 79 | 277 | 1.0 | 9.0 | 0.00 | 0.00 | 0.00 | 66 | 1005.7 |
| 20260903173402 | 78 | 305 | 4.0 | 11.0 | 0.00 | 0.00 | 0.00 | 65 | 1005.7 |
| 20260903172901 | 78 | 349 | 4.0 | 11.0 | 0.00 | 0.00 | 0.00 | 64 | 1005.7 |
| 20260903172402 | 78 | 334 | 2.0 | 6.0 | 0.00 | 0.00 | 0.00 | 66 | 1005.7 |
| 20260903171901 | 78 | 243 | 2.0 | 6.0 | 0.00 | 0.00 | 0.00 | 66 | 1005.7 |
| 20260903170403 | 77 | 283 | 6.0 | 9.0 | 0.00 | 0.00 | 0.00 | 64 | 1006.1 |
| 20260903165901 | 77 | 288 | 4.0 | 9.0 | 0.00 | 0.00 | 0.00 | 64 | 1006.1 |
| 20260903165402 | 76 | 326 | 0.0 | 11.0 | 0.00 | 0.00 | 0.00 | 64 | 1006.1 |
| 20260903164900 | 76 | 266 | 2.0 | 11.0 | 0.00 | 0.00 | 0.00 | 66 | 1006.1 |
| 20260903164403 | 76 | 282 | 5.0 | 9.0 | 0.00 | 0.00 | 0.00 | 64 | 1006.1 |
| 20260903162402 | 74 | 282 | 4.0 | 12.0 | 0.00 | 0.00 | 0.00 | 66 | 1006.9 |
| 20260903161859 | 74 | 270 | 1.0 | 9.0 | 0.00 | 0.00 | 0.00 | 66 | 1006.9 |
| 20260903161400 | 74 | 277 | 7.0 | 7.0 | 0.00 | 0.00 | 0.00 | 66 | 1006.9 |
| 20260903160858 | 74 | 186 | 0.0 | 6.0 | 0.00 | 0.00 | 0.00 | 67 | 1006.9 |
| 20260903160400 | 74 | 270 | 2.0 | 8.0 | 0.00 | 0.00 | 0.00 | 66 | 1006.9 |
| 20260903155858 | 74 | 322 | 3.0 | 8.0 | 0.00 | 0.00 | 0.00 | 68 | 1007.2 |
| 20260903155359 | 74 | 231 | 3.0 | 8.0 | 0.00 | 0.00 | 0.00 | 68 | 1006.9 |
| 20260903154359 | 73 | 270 | 2.0 | 6.0 | 0.00 | 0.00 | 0.00 | 68 | 1007.2 |
| 20260903153857 | 73 | 345 | 2.0 | 8.0 | 0.00 | 0.00 | 0.00 | 69 | 1006.9 |
| 20260903152358 | 72 | 329 | 4.0 | 9.0 | 0.00 | 0.00 | 0.00 | 68 | 1007.2 |
| 20260903151856 | 72 | 288 | 2.0 | 9.0 | 0.00 | 0.00 | 0.00 | 69 | 1007.2 |
| 20260903151357 | 73 | 270 | 2.0 | 6.0 | 0.00 | 0.00 | 0.00 | 71 | 1007.2 |
| 20260903150855 | 72 | 339 | 2.0 | 12.0 | 0.00 | 0.00 | 0.00 | 71 | 1007.5 |
| 20260903150358 | 72 | 322 | 3.0 | 12.0 | 0.00 | 0.00 | 0.00 | 72 | 1007.5 |
| 20260903145854 | 72 | 270 | 3.0 | 7.0 | 0.00 | 0.00 | 0.00 | 74 | 1007.2 |
| 20260903145356 | 71 | 270 | 2.0 | 7.0 | 0.00 | 0.00 | 0.00 | 73 | 1007.2 |
| 20260903144854 | 71 | 307 | 2.0 | 6.0 | 0.00 | 0.00 | 0.00 | 75 | 1007.2 |
| 20260903144355 | 71 | 312 | 0.0 | 8.0 | 0.00 | 0.00 | 0.00 | 74 | 1007.5 |
| 20260903143853 | 71 | 294 | 3.0 | 8.0 | 0.00 | 0.00 | 0.00 | 75 | 1007.5 |
| 20260903143353 | 71 | 228 | 2.0 | 8.0 | 0.00 | 0.00 | 0.00 | 75 | 1007.9 |
| 20260903142853 | 71 | 294 | 3.0 | 11.0 | 0.00 | 0.00 | 0.00 | 75 | 1007.5 |
| 20260903141854 | 71 | 270 | 2.0 | 9.0 | 0.00 | 0.00 | 0.00 | 76 | 1007.5 |
| 20260903141351 | 71 | 263 | 1.0 | 5.0 | 0.00 | 0.00 | 0.00 | 77 | 1007.9 |
| 20260903140852 | 71 | 270 | 1.0 | 5.0 | 0.00 | 0.00 | 0.00 | 77 | 1007.9 |
| 20260903140353 | 70 | 276 | 1.0 | 6.0 | 0.00 | 0.00 | 0.00 | 78 | 1008.2 |
| 20260903135333 | 70 | 320 | 2.0 | 7.0 | 0.00 | 0.00 | 0.00 | 79 | 1007.9 |
| 20260903134829 | 69 | 2 | 4.0 | 7.0 | 0.00 | 0.00 | 0.00 | 80 | 1007.9 |
| 20260903134330 | 69 | 258 | 2.0 | 4.0 | 0.00 | 0.00 | 0.00 | 80 | 1007.9 |
| 20260903133829 | 70 | 278 | 0.0 | 4.0 | 0.00 | 0.00 | 0.00 | 80 | 1008.2 |
| 20260903133331 | 68 | 345 | 3.0 | 4.0 | 0.00 | 0.00 | 0.00 | 83 | 1008.2 |
| 20260903132829 | 67 | 287 | 4.0 | 6.0 | 0.00 | 0.00 | 0.00 | 83 | 1007.9 |
| 20260903131829 | 66 | 0 | 0.0 | 4.0 | 0.00 | 0.00 | 0.00 | 86 | 1008.2 |
| 20260903131332 | 64 | 292 | 2.0 | 4.0 | 0.00 | 0.00 | 0.00 | 89 | 1007.9 |
| 20260903130829 | 64 | 285 | 1.0 | 4.0 | 0.00 | 0.00 | 0.00 | 91 | 1007.9 |
| 20260903125829 | 63 | 301 | 2.0 | 4.0 | 0.00 | 0.00 | 0.00 | 92 | 1008.2 |
| 20260903125332 | 62 | 287 | 3.0 | 5.0 | 0.00 | 0.00 | 0.00 | 92 | 1008.2 |
| 20260903124829 | 62 | 270 | 2.0 | 5.0 | 0.00 | 0.00 | 0.00 | 93 | 1007.9 |
| 20260903124332 | 62 | 0 | 0.0 | 4.0 | 0.00 | 0.00 | 0.00 | 93 | 1007.9 |
| 20260903123829 | 62 | 311 | 2.0 | 4.0 | 0.00 | 0.00 | 0.00 | 93 | 1007.9 |
| 20260903123330 | 61 | 254 | 0.0 | 4.0 | 0.00 | 0.00 | 0.00 | 94 | 1007.9 |
| 20260903122829 | 61 | 320 | 0.0 | 4.0 | 0.00 | 0.00 | 0.00 | 94 | 1008.5 |
| 20260903122332 | 61 | 261 | 0.0 | 4.0 | 0.00 | 0.00 | 0.00 | 94 | 1008.2 |
| 20260903121829 | 61 | 286 | 1.0 | 2.0 | 0.00 | 0.00 | 0.00 | 95 | 1008.2 |
| 20260903121331 | 60 | 251 | 0.0 | 4.0 | 0.00 | 0.00 | 0.00 | 94 | 1008.2 |
| 20260903120828 | 61 | 318 | 0.0 | 4.0 | 0.00 | 0.00 | 0.00 | 95 | 1008.5 |
| 20260903120333 | 60 | 257 | 0.0 | 4.0 | 0.00 | 0.00 | 0.00 | 95 | 1008.2 |
| 20260903115829 | 60 | 282 | 2.0 | 3.0 | 0.00 | 0.00 | 0.00 | 95 | 1008.2 |
| 20260903115333 | 60 | 279 | 2.0 | 5.0 | 0.00 | 0.00 | 0.00 | 96 | 1007.9 |
| 20260903114828 | 60 | 277 | 1.0 | 5.0 | 0.00 | 0.00 | 0.00 | 96 | 1008.2 |
| 20260903114331 | 60 | 276 | 0.0 | 3.0 | 0.00 | 0.00 | 0.00 | 96 | 1007.9 |
| 20260903113330 | 60 | 263 | 1.0 | 2.0 | 0.00 | 0.00 | 0.00 | 96 | 1008.2 |
| 20260903112829 | 60 | 286 | 0.0 | 2.0 | 0.00 | 0.00 | 0.00 | 96 | 1008.5 |
| 20260903112332 | 60 | 188 | 0.0 | 4.0 | 0.00 | 0.00 | 0.00 | 95 | 1008.2 |
| 20260903111829 | 60 | 270 | 2.0 | 5.0 | 0.00 | 0.00 | 0.00 | 95 | 1008.5 |
| 20260903111334 | 60 | 270 | 0.0 | 5.0 | 0.00 | 0.00 | 0.00 | 95 | 1007.9 |
| 20260903110829 | 60 | 279 | 0.0 | 2.0 | 0.00 | 0.00 | 0.00 | 95 | 1008.2 |
| 20260903110332 | 61 | 315 | 0.0 | 3.0 | 0.00 | 0.00 | 0.00 | 95 | 1008.2 |
| 20260903105828 | 61 | 270 | 1.0 | 4.0 | 0.00 | 0.00 | 0.00 | 95 | 1008.2 |
| 20260903105332 | 60 | 286 | 0.0 | 5.0 | 0.00 | 0.00 | 0.00 | 95 | 1008.2 |
| 20260903104829 | 61 | 292 | 0.0 | 5.0 | 0.00 | 0.00 | 0.00 | 95 | 1008.5 |
| 20260903104331 | 60 | 294 | 2.0 | 4.0 | 0.00 | 0.00 | 0.00 | 96 | 1008.2 |
| 20260903103829 | 60 | 270 | 0.0 | 2.0 | 0.00 | 0.00 | 0.00 | 96 | 1008.2 |
| 20260903102829 | 60 | 270 | 0.0 | 4.0 | 0.00 | 0.00 | 0.00 | 96 | 1008.2 |
| 20260903101331 | 60 | 270 | 0.0 | 3.0 | 0.00 | 0.00 | 0.00 | 96 | 1008.5 |
| 20260903100830 | 60 | 270 | 0.0 | 4.0 | 0.00 | 0.00 | 0.00 | 96 | 1008.2 |
| 20260903100330 | 60 | 279 | 0.0 | 4.0 | 0.00 | 0.00 | 0.00 | 96 | 1008.5 |
| 20260903095829 | 60 | 260 | 2.0 | 3.0 | 0.00 | 0.00 | 0.00 | 96 | 1008.5 |
| 20260903095337 | 60 | 270 | 0.0 | 3.0 | 0.00 | 0.00 | 0.00 | 96 | 1008.5 |
| 20260903094829 | 60 | 289 | 2.0 | 2.0 | 0.00 | 0.00 | 0.00 | 97 | 1008.2 |
| 20260903093830 | 60 | 285 | 0.0 | 2.0 | 0.00 | 0.00 | 0.00 | 97 | 1008.5 |
| 20260903093332 | 60 | 262 | 1.0 | 2.0 | 0.00 | 0.00 | 0.00 | 97 | 1008.2 |
| 20260903092829 | 60 | 270 | 0.0 | 2.0 | 0.00 | 0.00 | 0.00 | 97 | 1008.5 |
| 20260903091828 | 60 | 270 | 0.0 | 3.0 | 0.00 | 0.00 | 0.00 | 97 | 1008.2 |
| 20260903091331 | 60 | 279 | 0.0 | 3.0 | 0.00 | 0.00 | 0.00 | 97 | 1008.2 |
| 20260903090829 | 60 | 287 | 2.0 | 4.0 | 0.00 | 0.00 | 0.00 | 97 | 1008.2 |
| 20260903090331 | 60 | 258 | 0.0 | 4.0 | 0.00 | 0.00 | 0.00 | 96 | 1008.2 |
| 20260903085829 | 60 | 278 | 0.0 | 4.0 | 0.00 | 0.00 | 0.00 | 96 | 1008.2 |
| 20260903084828 | 60 | 336 | 0.0 | 3.0 | 0.00 | 0.00 | 0.00 | 98 | 1008.2 |
| 20260903084330 | 60 | 294 | 0.0 | 2.0 | 0.00 | 0.00 | 0.00 | 98 | 1008.2 |
| 20260903083829 | 59 | 278 | 1.0 | 2.0 | 0.00 | 0.00 | 0.00 | 98 | 1008.2 |
| 20260903083332 | 60 | 303 | 2.0 | 2.0 | 0.00 | 0.00 | 0.00 | 98 | 1008.2 |
| 20260903082829 | 59 | 278 | 1.0 | 2.0 | 0.00 | 0.00 | 0.00 | 98 | 1008.2 |
| 20260903082331 | 60 | 278 | 0.0 | 2.0 | 0.00 | 0.00 | 0.00 | 98 | 1008.5 |
| 20260903081828 | 60 | 255 | 1.0 | 2.0 | 0.00 | 0.00 | 0.00 | 98 | 1008.5 |
| 20260903081333 | 60 | 306 | 0.0 | 2.0 | 0.00 | 0.00 | 0.00 | 98 | 1008.5 |
| 20260903080829 | 59 | 278 | 0.0 | 1.0 | 0.00 | 0.00 | 0.00 | 98 | 1009.0 |
| 20260903080332 | 60 | 286 | 0.0 | 1.0 | 0.00 | 0.00 | 0.00 | 97 | 1008.5 |
| 20260903075829 | 60 | 276 | 0.0 | 1.0 | 0.00 | 0.00 | 0.00 | 97 | 1008.5 |
| 20260903075331 | 60 | 334 | 0.0 | 1.0 | 0.00 | 0.00 | 0.00 | 97 | 1008.5 |
| 20260903074828 | 60 | 270 | 0.0 | 1.0 | 0.00 | 0.00 | 0.00 | 97 | 1008.5 |
| 20260903074331 | 60 | 270 | 0.0 | 2.0 | 0.00 | 0.00 | 0.00 | 96 | 1008.5 |
| 20260903073828 | 60 | 300 | 0.0 | 2.0 | 0.00 | 0.00 | 0.00 | 96 | 1008.5 |
| 20260903073331 | 60 | 276 | 2.0 | 2.0 | 0.00 | 0.00 | 0.00 | 96 | 1008.5 |
| 20260903072331 | 60 | 299 | 0.0 | 3.0 | 0.00 | 0.00 | 0.00 | 96 | 1009.0 |
| 20260903071827 | 60 | 270 | 1.0 | 2.0 | 0.00 | 0.00 | 0.00 | 97 | 1008.5 |
| 20260903071329 | 60 | 255 | 0.0 | 2.0 | 0.00 | 0.00 | 0.00 | 96 | 1008.5 |
| 20260903070826 | 60 | 261 | 0.0 | 2.0 | 0.00 | 0.00 | 0.00 | 96 | 1008.5 |
| 20260903070329 | 60 | 270 | 0.0 | 2.0 | 0.00 | 0.00 | 0.00 | 96 | 1008.5 |
| 20260903065825 | 60 | 270 | 1.0 | 1.0 | 0.00 | 0.00 | 0.00 | 96 | 1008.5 |
| 20260903065327 | 60 | 270 | 0.0 | 2.0 | 0.00 | 0.00 | 0.00 | 96 | 1009.0 |
| 20260903064825 | 60 | 270 | 0.0 | 2.0 | 0.00 | 0.00 | 0.00 | 96 | 1009.0 |
| 20260903064328 | 60 | 270 | 0.0 | 1.0 | 0.00 | 0.00 | 0.00 | 95 | 1009.0 |
| 20260903063824 | 61 | 285 | 0.0 | 1.0 | 0.00 | 0.00 | 0.00 | 95 | 1009.0 |
| 20260903063327 | 61 | 262 | 1.0 | 2.0 | 0.00 | 0.00 | 0.00 | 94 | 1008.5 |
| 20260903062324 | 60 | 262 | 0.0 | 2.0 | 0.00 | 0.00 | 0.00 | 97 | 1009.0 |
| 20260903061823 | 60 | 270 | 0.0 | 2.0 | 0.00 | 0.00 | 0.00 | 98 | 1009.0 |
| 20260903061326 | 60 | 264 | 0.0 | 2.0 | 0.00 | 0.00 | 0.00 | 98 | 1009.0 |
| 20260903060822 | 60 | 270 | 0.0 | 1.0 | 0.00 | 0.00 | 0.00 | 98 | 1009.0 |
| 20260903060325 | 60 | 246 | 1.0 | 2.0 | 0.00 | 0.00 | 0.00 | 99 | 1009.0 |
| 20260903055822 | 60 | 270 | 0.0 | 2.0 | 0.00 | 0.00 | 0.00 | 99 | 1009.0 |
| 20260903055329 | 60 | 270 | 0.0 | 2.0 | 0.00 | 0.00 | 0.00 | 99 | 1009.0 |
| 20260903054821 | 60 | 254 | 0.0 | 2.0 | 0.00 | 0.00 | 0.00 | 99 | 1009.3 |
| 20260903054322 | 60 | 270 | 0.0 | 1.0 | 0.00 | 0.00 | 0.00 | 99 | 1009.3 |
| 20260903053820 | 60 | 270 | 0.0 | 1.0 | 0.00 | 0.00 | 0.00 | 99 | 1009.0 |
| 20260903053323 | 60 | 255 | 0.0 | 1.0 | 0.00 | 0.00 | 0.00 | 99 | 1009.0 |
| 20260903052325 | 60 | 261 | 0.0 | 0.0 | 0.00 | 0.00 | 0.00 | 99 | 1009.3 |
| 20260903051820 | 60 | 261 | 0.0 | 0.0 | 0.00 | 0.00 | 0.00 | 98 | 1009.3 |
| 20260903051322 | 60 | 261 | 0.0 | 0.0 | 0.00 | 0.00 | 0.00 | 98 | 1009.3 |
| 20260903050819 | 60 | 261 | 0.0 | 0.0 | 0.00 | 0.00 | 0.00 | 98 | 1009.7 |
| 20260903045819 | 60 | 261 | 0.0 | 0.0 | 0.00 | 0.00 | 0.00 | 98 | 1009.0 |
| 20260903044322 | 60 | 261 | 0.0 | 0.0 | 0.00 | 0.00 | 0.00 | 98 | 1009.3 |
| 20260903043817 | 60 | 261 | 0.0 | 0.0 | 0.00 | 0.00 | 0.00 | 98 | 1009.3 |
| 20260903043322 | 60 | 261 | 0.0 | 0.0 | 0.00 | 0.00 | 0.00 | 97 | 1009.3 |
| 20260903042816 | 60 | 261 | 0.0 | 0.0 | 0.00 | 0.00 | 0.00 | 97 | 1009.7 |
| 20260903042320 | 60 | 261 | 0.0 | 0.0 | 0.00 | 0.00 | 0.00 | 97 | 1009.3 |
| 20260903041816 | 60 | 261 | 0.0 | 0.0 | 0.00 | 0.00 | 0.00 | 97 | 1009.7 |
| 20260903041320 | 60 | 261 | 0.0 | 0.0 | 0.00 | 0.00 | 0.00 | 96 | 1009.7 |
| 20260903040815 | 60 | 188 | 0.0 | 0.0 | 0.00 | 0.00 | 0.00 | 96 | 1009.3 |
| 20260903040320 | 60 | 188 | 0.0 | 0.0 | 0.00 | 0.00 | 0.00 | 96 | 1009.7 |
| 20260903035814 | 60 | 188 | 0.0 | 0.0 | 0.00 | 0.00 | 0.00 | 96 | 1009.7 |
| 20260903035319 | 61 | 188 | 0.0 | 0.0 | 0.00 | 0.00 | 0.00 | 96 | 1009.7 |
| 20260903034814 | 61 | 188 | 0.0 | 0.0 | 0.00 | 0.00 | 0.00 | 95 | 1009.7 |
| 20260903034320 | 61 | 188 | 0.0 | 0.0 | 0.00 | 0.00 | 0.00 | 95 | 1009.7 |
| 20260903033813 | 61 | 188 | 0.0 | 0.0 | 0.00 | 0.00 | 0.00 | 95 | 1009.7 |
| 20260903033322 | 61 | 188 | 0.0 | 0.0 | 0.00 | 0.00 | 0.00 | 95 | 1009.3 |
| 20260903032813 | 61 | 188 | 0.0 | 0.0 | 0.00 | 0.00 | 0.00 | 95 | 1009.7 |
| 20260903032318 | 61 | 188 | 0.0 | 0.0 | 0.00 | 0.00 | 0.00 | 94 | 1009.3 |
| 20260903031813 | 61 | 188 | 0.0 | 0.0 | 0.00 | 0.00 | 0.00 | 94 | 1009.7 |
| 20260903031315 | 62 | 188 | 0.0 | 0.0 | 0.00 | 0.00 | 0.00 | 94 | 1009.7 |
| 20260903030315 | 62 | 188 | 0.0 | 0.0 | 0.00 | 0.00 | 0.00 | 93 | 1009.7 |
| 20260903025811 | 62 | 188 | 0.0 | 0.0 | 0.00 | 0.00 | 0.00 | 93 | 1009.7 |
| 20260903025314 | 62 | 188 | 0.0 | 0.0 | 0.00 | 0.00 | 0.00 | 93 | 1009.3 |
| 20260903024810 | 62 | 188 | 0.0 | 0.0 | 0.00 | 0.00 | 0.00 | 92 | 1009.7 |
| 20260903023314 | 63 | 188 | 0.0 | 0.0 | 0.00 | 0.00 | 0.00 | 91 | 1009.7 |
| 20260903022809 | 63 | 188 | 0.0 | 0.0 | 0.00 | 0.00 | 0.00 | 91 | 1009.3 |
| 20260903022310 | 63 | 188 | 0.0 | 0.0 | 0.00 | 0.00 | 0.00 | 90 | 1009.3 |
| 20260903021808 | 63 | 188 | 0.0 | 0.0 | 0.00 | 0.00 | 0.00 | 90 | 1009.7 |
| 20260903021311 | 63 | 188 | 0.0 | 0.0 | 0.00 | 0.00 | 0.00 | 90 | 1009.7 |
| 20260903020808 | 63 | 188 | 0.0 | 0.0 | 0.00 | 0.00 | 0.00 | 89 | 1009.3 |
| 20260903015808 | 64 | 188 | 0.0 | 0.0 | 0.00 | 0.00 | 0.00 | 88 | 1009.7 |
| 20260903014807 | 64 | 188 | 0.0 | 0.0 | 0.00 | 0.00 | 0.00 | 87 | 1009.3 |
| 20260903014309 | 64 | 188 | 0.0 | 0.0 | 0.00 | 0.00 | 0.00 | 87 | 1009.3 |
| 20260903013309 | 65 | 188 | 0.0 | 0.0 | 0.00 | 0.00 | 0.00 | 85 | 1009.3 |
| 20260903012308 | 65 | 188 | 0.0 | 0.0 | 0.00 | 0.00 | 0.00 | 82 | 1009.0 |
| 20260903011805 | 65 | 188 | 0.0 | 0.0 | 0.00 | 0.00 | 0.00 | 82 | 1009.0 |
| 20260903011308 | 66 | 188 | 0.0 | 0.0 | 0.00 | 0.00 | 0.00 | 81 | 1009.3 |
| 20260903010804 | 66 | 188 | 0.0 | 0.0 | 0.00 | 0.00 | 0.00 | 80 | 1009.0 |
| 20260903005804 | 67 | 246 | 0.0 | 0.0 | 0.00 | 0.00 | 0.00 | 80 | 1009.0 |
| 20260903005306 | 67 | 246 | 0.0 | 0.0 | 0.00 | 0.00 | 0.00 | 78 | 1009.0 |
| 20260903004803 | 68 | 246 | 0.0 | 0.0 | 0.00 | 0.00 | 0.00 | 78 | 1008.5 |
| 20260903004303 | 68 | 246 | 0.0 | 1.0 | 0.00 | 0.00 | 0.00 | 77 | 1008.5 |
| 20260903003801 | 69 | 246 | 0.0 | 1.0 | 0.00 | 0.00 | 0.00 | 75 | 1008.5 |
| 20260903002801 | 70 | 255 | 0.0 | 0.0 | 0.00 | 0.00 | 0.00 | 73 | 1008.5 |
| 20260903002306 | 71 | 255 | 0.0 | 0.0 | 0.00 | 0.00 | 0.00 | 72 | 1008.5 |
| 20260903001801 | 71 | 255 | 0.0 | 0.0 | 0.00 | 0.00 | 0.00 | 69 | 1008.5 |
| 20260903001304 | 71 | 255 | 0.0 | 0.0 | 0.00 | 0.00 | 0.00 | 71 | 1008.5 |
| 20260903000800 | 72 | 255 | 0.0 | 0.0 | 0.00 | 0.00 | 0.00 | 68 | 1008.5 |
| 20260903000303 | 73 | 255 | 0.0 | 1.0 | 0.00 | 0.00 | 0.00 | 66 | 1008.5 |
| 20260902235800 | 73 | 255 | 0.0 | 1.0 | 0.00 | 0.00 | 0.00 | 65 | 1008.5 |
| 20260902235301 | 74 | 254 | 0.0 | 1.0 | 0.00 | 0.00 | 0.00 | 65 | 1008.5 |
| 20260902234800 | 75 | 270 | 0.0 | 0.0 | 0.00 | 0.00 | 0.00 | 62 | 1009.0 |
| 20260902234259 | 77 | 320 | 0.0 | 0.0 | 0.00 | 0.00 | 0.00 | 60 | 1008.5 |
| 20260902233758 | 79 | 346 | 0.0 | 1.0 | 0.00 | 0.00 | 0.00 | 56 | 1009.0 |